Phoenix Deer Valley, AZ

7:34 AM MST on August 25, 2019 (GMT -0700)
Phoenix-Deer Valley Municipal

Weather History for KDVT - July, 2019

Change the Weather History Date:

Tuesday, July 16, 2019

  Actual Average Record
Temperature  
Mean Temperature 98 °F -  
Max Temperature 111 °F 101 °F 114 °F (1998)
Min Temperature 84 °F 80 °F 73 °F (2001)
Cooling Degree Days 32    
Growing Degree Days 48 (Base 50)    
Moisture  
Dew Point 45 °F    
Average Humidity 17    
Maximum Humidity 30    
Minimum Humidity 8    
Precipitation  
Precipitation 0.00 in - - ()
Sea Level Pressure  
Sea Level Pressure 29.69 in    
Wind  
Wind Speed 7 mph (SW)    
Max Wind Speed 17 mph    
Max Gust Speed 26 mph    
Visibility 10 miles    
Events      
Averages and records for this station are not official NWS values.
T = Trace of Precipitation, MM = Missing Value Source: NWS Daily Summary

Daily Weather History Graph

Daily Weather History Graph

Search for Another Location

Airport or City:

Astronomy

Jul. 16, 2019 Rise Set
Actual Time 5:29 AM MST 7:39 PM MST
Civil Twilight 5:01 AM MST 8:07 PM MST
Nautical Twilight 4:26 AM MST 8:41 PM MST
Astronomical Twilight 3:49 AM MST 9:18 PM MST
Moon 7:47 PM MST (7/16) 5:11 AM MST (7/16)
Length of Visible Light 15h 06m
Length of Day
14h 09m
Full, 100% of the Moon is Illuminated
Jul 16
Full
Jul 16
Full
Jul 24
Last Quarter
Jul 31
New
Aug 7
First Quarter

Hourly Weather History & Observations

Time (MST) Temp. Heat Index Dew Point Humidity Pressure Visibility Wind Dir Wind Speed Gust Speed Precip Events Conditions
12:53 AM 97.0 °F - 50.0 °F 20% 29.67 in 10.0 mi West 4.6 mph - N/A   Clear
1:53 AM 93.0 °F - 48.0 °F 21% 29.66 in 10.0 mi North 4.6 mph - N/A   Clear
2:53 AM 88.0 °F - 48.9 °F 26% 29.66 in 10.0 mi Calm Calm - N/A   Clear
3:53 AM 87.1 °F - 50.0 °F 28% 29.67 in 10.0 mi Calm Calm - N/A   Clear
4:53 AM 84.9 °F - 50.0 °F 30% 29.68 in 10.0 mi East 6.9 mph - N/A   Clear
5:53 AM 88.0 °F - 52.0 °F 29% 29.69 in 10.0 mi East 6.9 mph - N/A   Clear
6:53 AM 91.9 °F - 46.9 °F 21% 29.72 in 10.0 mi SSE 3.5 mph - N/A   Clear
7:53 AM 93.9 °F - 42.1 °F 17% 29.73 in 10.0 mi SSE 5.8 mph - N/A   Clear
8:53 AM 97.0 °F - 44.1 °F 16% 29.74 in 10.0 mi Variable 3.5 mph - N/A   Clear
9:53 AM 99.0 °F - 43.0 °F 15% 29.75 in 10.0 mi Variable 6.9 mph - N/A   Clear
10:04 AM 100.0 °F - 44.1 °F 15% 29.84 in 10.0 mi Variable 5.8 mph - N/A   Clear
10:53 AM 102.0 °F - 43.0 °F 13% 29.74 in 10.0 mi South 8.1 mph - N/A   Clear
11:53 AM 106.0 °F - 42.1 °F 11% 29.73 in 10.0 mi South 6.9 mph - N/A   Clear
12:53 PM 108.0 °F - 37.0 °F 9% 29.71 in 10.0 mi WSW 8.1 mph - N/A   Clear
1:53 PM 109.9 °F - 37.0 °F 8% 29.69 in 10.0 mi SW 12.7 mph 21.9 mph N/A   Clear
2:53 PM 109.9 °F - 37.9 °F 9% 29.68 in 10.0 mi SW 10.4 mph 25.3 mph N/A   Clear
3:53 PM 109.9 °F - 39.0 °F 9% 29.65 in 10.0 mi WSW 12.7 mph 26.5 mph N/A   Clear
4:53 PM 111.0 °F - 37.9 °F 8% 29.64 in 10.0 mi WSW 17.3 mph 23.0 mph N/A   Clear
5:53 PM 109.9 °F - 39.0 °F 9% 29.62 in 10.0 mi WSW 16.1 mph - N/A   Clear
6:53 PM 107.1 °F - 39.9 °F 10% 29.63 in 10.0 mi WSW 16.1 mph - N/A   Clear
7:53 PM 105.1 °F - 45.0 °F 13% 29.65 in 10.0 mi WSW 13.8 mph - N/A   Clear
8:53 PM 102.0 °F - 48.0 °F 16% 29.66 in 10.0 mi SW 11.5 mph - N/A   Clear
9:53 PM 100.0 °F - 51.1 °F 19% 29.68 in 10.0 mi SW 10.4 mph - N/A   Clear
10:53 PM 97.0 °F - 52.0 °F 22% 29.68 in 8.0 mi WSW 9.2 mph - N/A   Clear
11:53 PM 95.0 °F 94.0 °F 57.9 °F 29% 29.70 in 9.0 mi SW 9.2 mph - N/A   Clear